DW8937 Tallinn EE current weather conditions

sailwx.info

Wind from 287 at 2 knots gusting 4

Air temperature 0.6° C
Dewpoint -3.2° C

Last reported at 2020-Feb-25 02:07 UTC.
Time now 2020-Feb-25 02:37 UTC

Location: N 59°30' E 024°52'.
View on Google Maps.

See reports from other nearby stations

  
Tides and Currents Weather Stations Pressure Air Temp Water Temp Dewpoint Dewpoint Depression Visibility Wind Speed Wind Dir Waves Ship Positions
date/time (UTC)wind fromknots sea level pressurealtimeterstation pressurevisibilityair tempwater tempwave heightnotes
2020-Feb-25 02:07 287 2 gusting 4 0.6
2020-Feb-25 02:02 287 2 gusting 5 0.6
2020-Feb-25 01:52 287 3 gusting 6 0.6
2020-Feb-25 01:47 287 3 gusting 6 0.6
2020-Feb-25 01:42 302 3 gusting 6 0.6
2020-Feb-25 01:37 300 4 gusting 6 0.6
2020-Feb-25 01:32 302 4 gusting 6 0.6
2020-Feb-25 01:27 292 3 gusting 6 0.6
2020-Feb-25 01:22 283 3 gusting 6 0.6
2020-Feb-25 01:17 292 3 gusting 6 0.6
2020-Feb-25 01:12 289 3 gusting 6 0.6
2020-Feb-25 01:07 290 3 gusting 7 0.6
2020-Feb-25 01:02 290 3 gusting 7 0.6
2020-Feb-25 00:57 276 3 gusting 7 0.6
2020-Feb-25 00:52 276 4 gusting 7 0.6
2020-Feb-25 00:47 287 4 gusting 7 0.6
2020-Feb-25 00:42 285 4 gusting 7 0.6
2020-Feb-25 00:37 282 4 gusting 7 0.6
2020-Feb-25 00:32 280 4 gusting 7 0.6
2020-Feb-25 00:27 287 4 gusting 6 0.6
2020-Feb-25 00:22 281 3 gusting 6 0.6
2020-Feb-25 00:17 288 3 gusting 5 0.6
2020-Feb-25 00:12 288 3 gusting 6 0.6
2020-Feb-25 00:07 288 3 gusting 6 0.6
2020-Feb-25 00:02 288 3 gusting 6 0.6
2020-Feb-24 23:57 286 3 gusting 6 0.6
2020-Feb-24 23:52 284 3 gusting 6 0.6
2020-Feb-24 23:47 292 3 gusting 6 0.6
2020-Feb-24 23:42 292 4 gusting 7 0.6
2020-Feb-24 23:37 293 4 gusting 7 0.6
2020-Feb-24 23:32 297 3 gusting 7 0.6
2020-Feb-24 23:27 290 3 gusting 8 0.6
2020-Feb-24 23:22 302 4 gusting 8 0.6
2020-Feb-24 23:17 306 4 gusting 8 0.6
2020-Feb-24 23:12 305 3 gusting 6 0.6
2020-Feb-24 23:07 300 4 gusting 7 0.6
2020-Feb-24 23:02 300 4 gusting 8 0.6
2020-Feb-24 22:57 298 5 gusting 7 0.6
2020-Feb-24 22:52 306 5 gusting 7 0.6
2020-Feb-24 22:47 310 4 gusting 7 0.6
2020-Feb-24 22:42 312 3 gusting 7 0.6
2020-Feb-24 22:37 306 4 gusting 10 0.6
2020-Feb-24 22:32 306 5 gusting 10 0.6
2020-Feb-24 22:27 308 6 gusting 12 0.6
2020-Feb-24 22:22 317 5 gusting 12 1.1
2020-Feb-24 22:17 304 6 gusting 14 1.1
2020-Feb-24 22:12 306 6 gusting 14 1.1
2020-Feb-24 22:07 311 6 gusting 14 1.1
2020-Feb-24 22:02 302 6 gusting 14 1.1
2020-Feb-24 21:57 313 6 gusting 11 1.1
2020-Feb-24 21:52 309 6 gusting 11 1.1
2020-Feb-24 21:47 277 6 gusting 11 1.1
2020-Feb-24 21:42 288 5 gusting 11 1.1
2020-Feb-24 21:37 278 6 gusting 11 1.1
2020-Feb-24 21:32 284 6 gusting 11 1.1
2020-Feb-24 21:27 315 5 gusting 13 1.1
2020-Feb-24 21:22 298 5 gusting 13 1.1
2020-Feb-24 21:17 294 6 gusting 13 1.1
2020-Feb-24 21:12 293 6 gusting 13 1.1
2020-Feb-24 21:07 290 6 gusting 13 1.1
2020-Feb-24 21:02 285 7 gusting 13 1.1
2020-Feb-24 20:57 273 7 gusting 14 1.1
2020-Feb-24 20:52 303 8 gusting 14 1.1
2020-Feb-24 20:47 270 8 gusting 14 1.1
2020-Feb-24 20:42 294 6 gusting 13 1.1
2020-Feb-24 20:37 284 6 gusting 14 1.1
2020-Feb-24 20:32 292 7 gusting 15 1.1
2020-Feb-24 20:27 319 8 gusting 15 1.1
2020-Feb-24 20:22 305 7 gusting 15 1.1
2020-Feb-24 20:17 296 6 gusting 13 1.1
2020-Feb-24 20:12 246 7 gusting 12 1.1
2020-Feb-24 20:07 304 7 gusting 12 1.1
2020-Feb-24 20:02 310 7 gusting 16 1.1
2020-Feb-24 19:57 307 8 gusting 16 1.1
2020-Feb-24 19:52 306 10 gusting 16 1.1
2020-Feb-24 19:47 311 9 gusting 15 1.1
2020-Feb-24 19:42 280 8 gusting 15 1.1
2020-Feb-24 19:37 308 7 gusting 14 1.1
2020-Feb-24 19:32 290 7 gusting 18 1.1
2020-Feb-24 19:27 309 9 gusting 18 1.1
2020-Feb-24 19:22 292 9 gusting 18 1.1
2020-Feb-24 19:17 291 8 gusting 19 1.1
2020-Feb-24 19:12 283 9 gusting 19 1.1
2020-Feb-24 19:07 323 9 gusting 19 1.7
2020-Feb-24 19:02 276 9 gusting 18 1.7
2020-Feb-24 18:57 298 9 gusting 18 1.7
2020-Feb-24 18:52 281 9 gusting 18 1.7
2020-Feb-24 18:47 308 10 gusting 18 1.7
2020-Feb-24 18:42 298 10 gusting 20 1.7
2020-Feb-24 18:37 292 10 gusting 20 1.7
2020-Feb-24 18:02 300 8 gusting 17 1.7
2020-Feb-24 17:57 295 7 gusting 18 1.7
2020-Feb-24 17:52 288 8 gusting 18 1.7
2020-Feb-24 17:47 312 10 gusting 18 1.7
2020-Feb-24 17:42 306 10 gusting 18 1.7
2020-Feb-24 17:37 293 10 gusting 18 1.7
2020-Feb-24 17:32 308 10 gusting 18 1.7
2020-Feb-24 17:27 313 10 gusting 17 1.7
2020-Feb-24 17:22 308 9 gusting 17 1.7
2020-Feb-24 17:17 308 9 gusting 16 1.7
2020-Feb-24 17:12 299 9 gusting 15 1.7
2020-Feb-24 17:07 298 9 gusting 20 1.7
2020-Feb-24 17:02 312 9 gusting 20 1.7
2020-Feb-24 16:57 282 8 gusting 16 1.7
2020-Feb-24 16:52 281 8 gusting 16 1.7
2020-Feb-24 16:47 287 8 gusting 16 1.7
2020-Feb-24 16:42 275 8 gusting 15 1.7
2020-Feb-24 16:37 290 8 gusting 16 1.7
2020-Feb-24 16:32 240 8 gusting 16 1.7
2020-Feb-24 16:27 289 8 gusting 19 1.7
2020-Feb-24 16:22 290 10 gusting 19 1.7
2020-Feb-24 16:17 280 9 gusting 21 1.7
2020-Feb-24 16:12 300 9 gusting 21 1.7
2020-Feb-24 16:07 304 11 gusting 21 1.7
2020-Feb-24 16:02 292 12 gusting 21 2.2
2020-Feb-24 15:57 304 11 gusting 21 2.2
2020-Feb-24 15:52 304 12 gusting 21 2.2
2020-Feb-24 15:47 296 11 gusting 22 2.2
2020-Feb-24 15:42 266 11 gusting 22 2.2
2020-Feb-24 15:37 300 13 gusting 22 2.2
2020-Feb-24 15:32 294 13 gusting 21 2.2
2020-Feb-24 15:27 293 13 gusting 20 2.2
2020-Feb-24 15:22 291 12 gusting 20 2.2
2020-Feb-24 15:17 297 11 gusting 24 2.2
2020-Feb-24 15:12 263 13 gusting 24 2.2
2020-Feb-24 15:07 281 12 gusting 24 2.2
2020-Feb-24 15:02 292 10 gusting 19 2.2
2020-Feb-24 14:57 275 11 gusting 23 2.8
2020-Feb-24 14:52 255 12 gusting 23 2.8
2020-Feb-24 14:47 301 12 gusting 23 2.8
2020-Feb-24 14:42 294 12 gusting 23 2.8
2020-Feb-24 14:37 244 10 gusting 19 2.8
2020-Feb-24 14:32 277 10 gusting 21 2.8
2020-Feb-24 14:27 290 11 gusting 22 2.8
2020-Feb-24 14:22 271 12 gusting 22 2.8
2020-Feb-24 14:17 266 12 gusting 22 2.8
2020-Feb-24 14:12 308 12 gusting 22 3.3
2020-Feb-24 14:07 275 12 gusting 22 3.3
2020-Feb-24 14:02 300 12 gusting 25 3.3
2020-Feb-24 13:57 270 12 gusting 21 3.3
2020-Feb-24 13:52 263 12 gusting 21 3.3
2020-Feb-24 13:47 285 13 gusting 21 3.3
2020-Feb-24 13:42 296 12 gusting 21 3.3
2020-Feb-24 13:37 263 11 gusting 21 3.3
2020-Feb-24 13:32 281 12 gusting 22 3.3
2020-Feb-24 13:27 267 13 gusting 22 3.3
2020-Feb-24 13:22 247 13 gusting 22 3.3
2020-Feb-24 13:17 279 13 gusting 25 3.3
2020-Feb-24 13:12 290 13 gusting 25 3.3
2020-Feb-24 13:07 296 11 gusting 22 3.9
2020-Feb-24 13:02 290 11 gusting 24 3.9
2020-Feb-24 12:57 275 12 gusting 25 3.9
2020-Feb-24 12:52 274 13 gusting 25 3.9
2020-Feb-24 12:47 269 13 gusting 25 3.9
2020-Feb-24 12:42 292 13 gusting 25 3.9
2020-Feb-24 12:37 252 13 gusting 22 3.9
2020-Feb-24 12:32 299 13 gusting 23 3.9
2020-Feb-24 12:27 281 13 gusting 23 3.9
2020-Feb-24 12:22 300 12 gusting 23 3.9
2020-Feb-24 12:17 292 12 gusting 23 3.9
2020-Feb-24 12:12 284 12 gusting 23 3.9
2020-Feb-24 12:07 281 11 gusting 22 3.9
2020-Feb-24 12:02 263 11 gusting 21 3.9
2020-Feb-24 11:57 304 11 gusting 22 3.9
2020-Feb-24 11:52 254 11 gusting 22 3.9
2020-Feb-24 11:47 292 12 gusting 24 3.9
2020-Feb-24 11:42 292 13 gusting 24 3.9
2020-Feb-24 11:37 306 13 gusting 22 3.9
2020-Feb-24 11:32 287 13 gusting 22 3.9
2020-Feb-24 11:27 292 12 gusting 21 3.9
2020-Feb-24 11:22 281 12 gusting 21 3.9
2020-Feb-24 11:17 285 13 gusting 22 3.9
2020-Feb-24 11:12 288 13 gusting 22 3.9
2020-Feb-24 11:07 302 12 gusting 22 3.9
2020-Feb-24 11:02 307 10 gusting 20 3.9
2020-Feb-24 10:57 273 11 gusting 20 3.9
2020-Feb-24 10:52 292 12 gusting 20 3.9
2020-Feb-24 10:47 270 11 gusting 19 3.9
2020-Feb-24 10:42 281 11 gusting 21 3.9
2020-Feb-24 10:37 288 13 gusting 21 3.3
2020-Feb-24 10:32 285 12 gusting 21 3.3
2020-Feb-24 10:27 318 11 gusting 20 3.9
2020-Feb-24 10:22 300 12 gusting 20 3.3
2020-Feb-24 10:17 286 13 gusting 19 3.3
2020-Feb-24 10:12 290 12 gusting 19 3.3
2020-Feb-24 10:07 294 11 gusting 19 3.3
2020-Feb-24 10:02 273 10 gusting 19 3.3
2020-Feb-24 09:57 286 9 gusting 18 3.3
2020-Feb-24 09:52 284 11 gusting 18 3.3
2020-Feb-24 09:47 251 12 gusting 20 2.8
2020-Feb-24 09:42 293 11 gusting 20 2.8
2020-Feb-24 09:37 290 10 gusting 19 3.3
2020-Feb-24 09:32 314 10 gusting 18 3.3
2020-Feb-24 09:27 307 10 gusting 22 3.3
2020-Feb-24 09:22 306 11 gusting 22 2.8
2020-Feb-24 09:17 279 12 gusting 22 2.8
2020-Feb-24 09:12 294 13 gusting 22 2.8
2020-Feb-24 09:07 294 12 gusting 22 2.8
2020-Feb-24 09:02 281 11 gusting 19 2.8
2020-Feb-24 08:57 292 12 gusting 22 2.8
2020-Feb-24 08:52 270 12 gusting 22 2.8
2020-Feb-24 08:47 307 12 gusting 22 2.8
2020-Feb-24 08:42 298 12 gusting 20 2.8
2020-Feb-24 08:37 283 11 gusting 20 2.8
2020-Feb-24 08:32 294 11 gusting 20 2.2
2020-Feb-24 08:27 2.2
2020-Feb-24 08:22 286 11 gusting 19 2.2
2020-Feb-24 08:17 302 12 gusting 19 2.2
2020-Feb-24 08:12 315 12 gusting 19 2.2
2020-Feb-24 08:07 300 11 gusting 19 2.2
2020-Feb-24 08:02 311 12 gusting 20 2.2
2020-Feb-24 07:57 316 13 gusting 20 2.2
2020-Feb-24 07:52 307 12 gusting 20 2.2
2020-Feb-24 07:47 278 11 gusting 20 1.7
2020-Feb-24 07:42 280 11 gusting 20 1.7
2020-Feb-24 07:37 275 12 gusting 20 1.7
2020-Feb-24 07:32 301 11 gusting 21 1.7
2020-Feb-24 07:27 300 11 gusting 23 1.7
2020-Feb-24 07:22 300 13 gusting 23 1.7
2020-Feb-24 07:17 302 12 gusting 24 1.7
2020-Feb-24 07:12 290 12 gusting 24 1.7
2020-Feb-24 07:07 288 12 gusting 24 1.7
2020-Feb-24 07:02 309 11 gusting 20 1.7
2020-Feb-24 06:57 288 12 gusting 19 1.7
2020-Feb-24 06:52 292 11 gusting 19 1.7
2020-Feb-24 06:47 305 11 gusting 19 1.7
2020-Feb-24 06:42 298 12 gusting 19 1.7
2020-Feb-24 06:37 292 11 gusting 19 1.7
2020-Feb-24 06:32 304 11 gusting 26 1.7
2020-Feb-24 06:27 296 13 gusting 26 1.1
2020-Feb-24 06:22 313 13 gusting 26 1.7
2020-Feb-24 06:17 298 12 gusting 22 1.1
2020-Feb-24 06:12 297 12 gusting 19 1.1
2020-Feb-24 06:07 327 12 gusting 22 1.1
2020-Feb-24 06:02 286 12 gusting 22 1.1
2020-Feb-24 05:57 315 11 gusting 20 1.7
2020-Feb-24 05:52 302 12 gusting 20 1.7
2020-Feb-24 05:47 297 12 gusting 18 1.7
2020-Feb-24 05:42 303 12 gusting 18 1.7
2020-Feb-24 05:37 340 11 gusting 19 1.7
2020-Feb-24 05:32 307 10 gusting 19 1.7
2020-Feb-24 05:27 304 10 gusting 19 1.7
2020-Feb-24 05:22 304 11 gusting 19 1.7
2020-Feb-24 05:17 318 11 gusting 20 1.7
2020-Feb-24 05:12 300 11 gusting 20 1.7
2020-Feb-24 05:07 304 11 gusting 20 1.7
2020-Feb-24 05:02 326 11 gusting 20 1.7
2020-Feb-24 04:57 279 11 gusting 19 1.7
2020-Feb-24 04:52 311 11 gusting 19 1.7
2020-Feb-24 04:47 315 10 gusting 20 1.7
2020-Feb-24 04:42 311 9 gusting 20 1.7
2020-Feb-24 04:37 306 10 gusting 20 2.2
2020-Feb-24 04:32 317 11 gusting 20 2.2
2020-Feb-24 04:27 309 9 gusting 17 1.7
2020-Feb-24 04:22 298 9 gusting 17 2.2
2020-Feb-24 04:17 305 10 gusting 17 2.2
2020-Feb-24 04:12 312 10 gusting 17 2.2
2020-Feb-24 04:07 309 11 gusting 17 2.2
2020-Feb-24 04:02 314 11 gusting 19 2.2
2020-Feb-24 03:57 298 10 gusting 19 2.2
2020-Feb-24 03:52 300 11 gusting 22 2.2
2020-Feb-24 03:47 304 12 gusting 22 2.2
2020-Feb-24 03:42 283 12 gusting 20 2.8
2020-Feb-24 03:37 294 12 gusting 20 2.8
2020-Feb-24 03:32 303 11 gusting 19 2.8
2020-Feb-24 03:27 318 11 gusting 19 2.8
2020-Feb-24 03:22 299 9 gusting 14 2.8
2020-Feb-24 03:17 267 8 gusting 14 2.8
2020-Feb-24 03:12 290 7 gusting 15 2.8
2020-Feb-24 03:07 288 8 gusting 15 2.8
2020-Feb-24 03:02 306 8 gusting 14 2.8
2020-Feb-24 02:57 302 8 gusting 14 2.8
2020-Feb-24 02:52 297 8 gusting 17 2.8
2020-Feb-24 02:47 303 8 gusting 17 2.8
2020-Feb-24 02:42 298 8 gusting 17 2.8
2020-Feb-24 02:37 299 6 gusting 13 2.2
2020-Feb-24 02:32 290 6 gusting 12 2.2
2020-Feb-24 02:27 292 6 gusting 11 2.8
2020-Feb-24 02:22 292 6 gusting 11 2.8
2020-Feb-24 02:17 295 6 gusting 12 2.8
2020-Feb-24 02:12 284 6 gusting 12 2.8
2020-Feb-24 02:07 301 6 gusting 13 2.2
2020-Feb-24 02:02 299 6 gusting 13 2.2
2020-Feb-24 01:57 300 7 gusting 13 2.2
2020-Feb-24 01:52 305 7 gusting 13 2.2
2020-Feb-24 01:47 291 6 gusting 15 2.2
2020-Feb-24 01:42 290 8 gusting 15 2.2
2020-Feb-24 01:37 282 9 gusting 18 2.8
2020-Feb-24 01:32 293 8 gusting 18 2.8
2020-Feb-24 01:27 296 9 gusting 15 2.8
2020-Feb-24 01:22 281 9 gusting 15 2.8
2020-Feb-24 01:17 296 9 gusting 14 2.8
2020-Feb-24 01:12 302 9 gusting 14 2.8
2020-Feb-24 01:07 282 8 gusting 17 2.8
2020-Feb-24 01:02 285 8 gusting 17 2.8
2020-Feb-24 00:57 298 7 gusting 18 2.8
2020-Feb-24 00:52 278 7 gusting 18 2.8
2020-Feb-24 00:47 299 7 gusting 18 2.8
2020-Feb-24 00:42 285 7 gusting 13 2.8
2020-Feb-24 00:37 280 7 gusting 14 2.8
2020-Feb-24 00:32 292 7 gusting 14 2.8
2020-Feb-24 00:27 287 7 gusting 13 2.8
2020-Feb-24 00:22 279 7 gusting 13 2.8
2020-Feb-24 00:17 275 6 gusting 13 2.8
2020-Feb-24 00:12 277 6 gusting 13 2.8
2020-Feb-24 00:07 255 6 gusting 13 2.8
2020-Feb-24 00:02 286 6 gusting 13 2.8
2020-Feb-23 23:57 285 6 gusting 13 2.8
2020-Feb-23 23:52 282 6 gusting 13 2.8
2020-Feb-23 23:47 271 6 gusting 11 2.8
2020-Feb-23 23:42 265 6 gusting 11 2.8
2020-Feb-23 23:37 271 6 gusting 11 2.8
2020-Feb-23 23:32 290 6 gusting 13 2.8
2020-Feb-23 23:27 276 6 gusting 13 2.8
2020-Feb-23 23:22 273 6 gusting 13 2.8
2020-Feb-23 23:17 257 6 gusting 10 2.8
2020-Feb-23 23:12 270 6 gusting 10 2.8
2020-Feb-23 23:07 257 5 gusting 11 2.8
2020-Feb-23 23:02 269 5 gusting 11 2.8
2020-Feb-23 22:57 275 5 gusting 10 2.8
2020-Feb-23 22:52 312 5 gusting 10 3.3
2020-Feb-23 22:47 262 6 gusting 10 3.3
2020-Feb-23 22:42 262 6 gusting 11 3.3
2020-Feb-23 22:37 267 6 gusting 11 3.3
2020-Feb-23 22:32 292 6 gusting 12 3.3
2020-Feb-23 22:27 278 6 gusting 12 3.3
2020-Feb-23 22:22 279 6 gusting 12 3.3
2020-Feb-23 22:17 275 5 gusting 12 3.3
2020-Feb-23 22:12 276 5 gusting 12 3.3
2020-Feb-23 22:07 295 6 gusting 12 3.3
2020-Feb-23 22:02 277 6 gusting 12 3.3
2020-Feb-23 21:57 281 6 gusting 12 3.3
2020-Feb-23 21:52 267 6 gusting 12 3.3
2020-Feb-23 21:47 297 6 gusting 12 3.3
2020-Feb-23 21:42 277 6 gusting 12 3.3
2020-Feb-23 21:37 269 6 gusting 13 3.3
2020-Feb-23 21:32 292 6 gusting 13 3.3
2020-Feb-23 21:27 263 6 gusting 13 3.3
2020-Feb-23 21:22 289 6 gusting 13 3.3
2020-Feb-23 21:17 263 6 gusting 13 3.3
2020-Feb-23 21:12 274 6 gusting 13 3.3
2020-Feb-23 21:07 265 7 gusting 13 3.3
2020-Feb-23 21:02 276 7 gusting 13 3.3
2020-Feb-23 20:57 302 7 gusting 13 3.3
2020-Feb-23 20:52 272 7 gusting 13 3.3
2020-Feb-23 20:47 261 7 gusting 13 3.3
2020-Feb-23 20:42 253 7 gusting 15 3.3
2020-Feb-23 20:37 273 8 gusting 15 3.3
2020-Feb-23 20:32 299 7 gusting 13 3.3
2020-Feb-23 20:27 269 6 gusting 13 3.3
2020-Feb-23 20:22 254 7 gusting 13 3.9
2020-Feb-23 20:17 274 7 gusting 13 3.9
2020-Feb-23 20:12 275 7 gusting 13 3.9
2020-Feb-23 20:07 274 7 gusting 13 3.9
2020-Feb-23 20:02 267 7 gusting 13 3.9
2020-Feb-23 19:57 284 6 gusting 13 3.9
2020-Feb-23 19:52 267 6 gusting 13 3.9
2020-Feb-23 19:47 294 6 gusting 13 3.9
2020-Feb-23 19:42 271 7 gusting 13 3.9
2020-Feb-23 19:37 293 7 gusting 13 3.9
2020-Feb-23 19:32 272 6 gusting 11 3.9
2020-Feb-23 19:27 259 6 gusting 12 3.3
2020-Feb-23 19:22 258 6 gusting 12 3.3
2020-Feb-23 19:17 248 6 gusting 13 3.3
2020-Feb-23 19:12 270 6 gusting 13 3.3
2020-Feb-23 19:07 254 6 gusting 11 3.3
2020-Feb-23 19:02 257 6 gusting 11 3.3
2020-Feb-23 18:57 259 6 gusting 14 3.3
2020-Feb-23 18:52 252 6 gusting 14 3.3
2020-Feb-23 18:47 263 6 gusting 14 3.9
2020-Feb-23 18:42 261 6 gusting 14 3.9
2020-Feb-23 18:37 279 6 gusting 13 3.9
2020-Feb-23 18:32 263 6 gusting 13 3.9
2020-Feb-23 18:27 259 7 gusting 13 3.9
2020-Feb-23 18:22 268 7 gusting 13 3.9
2020-Feb-23 18:17 261 6 gusting 13 3.9
2020-Feb-23 18:12 246 6 gusting 13 3.9
2020-Feb-23 18:07 274 7 gusting 13 3.9
2020-Feb-23 18:02 245 8 gusting 13 3.9
2020-Feb-23 17:57 264 8 gusting 14 3.9
2020-Feb-23 17:52 268 7 gusting 14 3.9
2020-Feb-23 17:47 272 7 gusting 16 3.9
2020-Feb-23 17:42 263 8 gusting 16 3.3
2020-Feb-23 17:37 257 8 gusting 16 3.3
2020-Feb-23 17:32 253 7 gusting 15 3.3
2020-Feb-23 17:27 247 8 gusting 17 3.3
2020-Feb-23 17:22 279 8 gusting 17 3.9
2020-Feb-23 17:17 254 9 gusting 17 3.9
2020-Feb-23 17:12 261 9 gusting 17 3.9
2020-Feb-23 17:07 271 9 gusting 16 3.9
2020-Feb-23 17:02 255 9 gusting 16 3.9
2020-Feb-23 16:57 279 8 gusting 17 3.9
2020-Feb-23 16:52 269 8 gusting 17 3.9
2020-Feb-23 16:47 272 9 gusting 17 3.9
2020-Feb-23 16:42 246 9 gusting 17 3.9
2020-Feb-23 16:37 262 9 gusting 16 3.9
2020-Feb-23 16:32 269 8 gusting 16 3.9
2020-Feb-23 16:27 259 8 gusting 19 3.9
2020-Feb-23 16:22 281 8 gusting 19 3.9
2020-Feb-23 16:17 273 9 gusting 20 3.9
2020-Feb-23 16:12 263 10 gusting 20 3.9
2020-Feb-23 16:07 269 11 gusting 20 3.9
2020-Feb-23 16:02 265 10 gusting 20 3.9
2020-Feb-23 15:57 244 9 gusting 17 3.9
2020-Feb-23 15:52 275 9 gusting 17 3.9
2020-Feb-23 15:47 294 9 gusting 17 3.9
2020-Feb-23 15:42 266 9 gusting 17 3.9
2020-Feb-23 15:37 269 9 gusting 17 3.9
2020-Feb-23 15:32 259 9 gusting 18 3.9
2020-Feb-23 15:27 275 9 gusting 18 3.9
2020-Feb-23 15:22 281 10 gusting 18 3.9
2020-Feb-23 15:17 278 10 gusting 19 3.9
2020-Feb-23 15:12 258 10 gusting 19 3.9
2020-Feb-23 15:07 265 11 gusting 19 3.9
2020-Feb-23 15:02 252 12 gusting 19 4.4
2020-Feb-23 14:57 234 11 gusting 19 4.4
2020-Feb-23 14:52 254 9 gusting 19 4.4
2020-Feb-23 14:47 262 10 gusting 19 4.4
2020-Feb-23 14:42 275 11 gusting 19 4.4
2020-Feb-23 14:37 251 10 gusting 19 4.4
2020-Feb-23 14:32 266 9 gusting 19 4.4
2020-Feb-23 14:27 259 10 gusting 19 4.4
2020-Feb-23 14:22 254 11 gusting 19 4.4
2020-Feb-23 14:17 257 11 gusting 19 5.0
2020-Feb-23 14:12 236 11 gusting 19 5.0
2020-Feb-23 14:07 251 11 gusting 19 5.0
2020-Feb-23 14:02 248 9 gusting 19 5.0
2020-Feb-23 13:57 257 9 gusting 19 5.0
2020-Feb-23 13:52 251 10 gusting 19 5.0
2020-Feb-23 13:47 263 11 gusting 19 5.0
2020-Feb-23 13:42 284 10 gusting 19 5.0
2020-Feb-23 13:37 259 10 gusting 19 5.0
2020-Feb-23 13:32 261 11 gusting 22 5.0
2020-Feb-23 13:27 253 12 gusting 22 5.0
2020-Feb-23 13:22 262 11 gusting 22 5.0
2020-Feb-23 13:17 244 10 gusting 18 5.0
2020-Feb-23 13:12 262 10 gusting 18 5.0
2020-Feb-23 13:07 259 10 gusting 21 5.0
2020-Feb-23 13:02 251 12 gusting 21 5.0
2020-Feb-23 12:57 266 12 gusting 20 5.0
2020-Feb-23 12:52 253 12 gusting 20 5.0
2020-Feb-23 12:47 250 10 gusting 19 5.0
2020-Feb-23 12:42 257 10 gusting 19 5.6
2020-Feb-23 12:37 252 10 gusting 20 5.6
2020-Feb-23 12:32 260 11 gusting 20 5.0
2020-Feb-23 12:27 272 12 gusting 20 5.0
2020-Feb-23 12:22 230 12 gusting 20 5.0
2020-Feb-23 12:17 255 10 gusting 23 4.4
2020-Feb-23 12:12 261 11 gusting 23 4.4
2020-Feb-23 12:07 250 12 gusting 23 4.4
2020-Feb-23 12:02 248 11 gusting 25 4.4
2020-Feb-23 11:57 275 11 gusting 25 4.4
2020-Feb-23 11:52 265 12 gusting 25 4.4
2020-Feb-23 11:47 248 12 gusting 23 4.4
2020-Feb-23 11:42 255 12 gusting 21 4.4
2020-Feb-23 11:37 252 12 gusting 21 4.4
2020-Feb-23 11:32 246 11 gusting 23 4.4
2020-Feb-23 11:27 259 12 gusting 23 4.4
2020-Feb-23 11:22 268 12 gusting 23 4.4
2020-Feb-23 11:17 263 10 gusting 16 4.4
2020-Feb-23 11:12 261 10 gusting 17 4.4
2020-Feb-23 11:07 287 11 gusting 17 4.4
2020-Feb-23 11:02 257 9 gusting 19 3.9
2020-Feb-23 10:57 281 9 gusting 23 3.9
2020-Feb-23 10:52 253 12 gusting 23 3.9
2020-Feb-23 10:47 249 13 gusting 23 4.4
2020-Feb-23 10:42 252 12 gusting 23 5.0
2020-Feb-23 10:37 254 11 gusting 23 5.0
2020-Feb-23 10:32 288 11 gusting 21 5.0
2020-Feb-23 10:27 283 10 gusting 20 4.4
2020-Feb-23 10:22 280 10 gusting 20 4.4
2020-Feb-23 10:17 275 11 gusting 23 4.4
2020-Feb-23 10:12 247 11 gusting 23 4.4
2020-Feb-23 10:07 277 13 gusting 23 4.4
2020-Feb-23 10:02 246 12 gusting 24 4.4
2020-Feb-23 09:57 269 13 gusting 24 5.0
2020-Feb-23 09:52 250 13 gusting 24 5.0
2020-Feb-23 09:47 267 12 gusting 20 5.0
2020-Feb-23 09:42 265 10 gusting 20 5.0
2020-Feb-23 09:37 243 10 gusting 20 5.0
2020-Feb-23 09:32 251 9 gusting 19 5.0
2020-Feb-23 09:27 240 9 gusting 19 5.0
2020-Feb-23 09:22 202 10 gusting 19 5.0
2020-Feb-23 09:17 249 9 gusting 20 5.0
2020-Feb-23 09:12 242 10 gusting 22 5.0
2020-Feb-23 09:07 249 10 gusting 22 5.0
2020-Feb-23 09:02 257 11 gusting 22 5.0
2020-Feb-23 08:57 252 11 gusting 20 5.0
2020-Feb-23 08:52 244 10 gusting 21 5.0
2020-Feb-23 08:47 254 12 gusting 23 5.0
2020-Feb-23 08:42 294 12 gusting 23 5.0
2020-Feb-23 08:37 265 11 gusting 23 4.4
2020-Feb-23 08:32 260 9 gusting 19 4.4
2020-Feb-23 08:27 236 8 gusting 24 4.4
2020-Feb-23 08:22 236 10 gusting 24 4.4
2020-Feb-23 08:17 223 12 gusting 24 4.4
2020-Feb-23 08:12 246 12 gusting 24 4.4
2020-Feb-23 08:07 244 10 gusting 20 4.4
2020-Feb-23 08:02 247 10 gusting 19 4.4
2020-Feb-23 07:57 238 9 gusting 19 4.4
2020-Feb-23 07:52 257 10 gusting 19 4.4
2020-Feb-23 07:47 257 11 gusting 19 4.4
2020-Feb-23 07:42 250 10 gusting 19 4.4
2020-Feb-23 07:37 281 9 gusting 19 4.4
2020-Feb-23 07:32 222 9 gusting 21 4.4
2020-Feb-23 07:27 236 9 gusting 21 4.4
2020-Feb-23 07:22 281 10 gusting 21 4.4
2020-Feb-23 07:17 238 10 gusting 19 4.4
2020-Feb-23 07:12 220 11 gusting 16 4.4
2020-Feb-23 07:07 256 10 gusting 20 4.4
2020-Feb-23 07:02 233 10 gusting 20 4.4
2020-Feb-23 06:57 242 10 gusting 17 4.4
2020-Feb-23 06:52 236 10 gusting 17 4.4
2020-Feb-23 06:47 261 11 gusting 19 4.4
2020-Feb-23 06:42 225 10 gusting 19 3.9
2020-Feb-23 06:37 236 10 gusting 19 3.9
2020-Feb-23 06:32 288 9 gusting 18 3.9
2020-Feb-23 06:27 252 10 gusting 21 3.9
2020-Feb-23 06:22 238 11 gusting 21 3.9
2020-Feb-23 06:17 252 10 gusting 19 3.9
2020-Feb-23 06:12 285 10 gusting 19 3.9
2020-Feb-23 06:07 253 10 gusting 19 3.9
2020-Feb-23 06:02 239 11 gusting 19 3.9
2020-Feb-23 05:57 252 11 gusting 22 3.9
2020-Feb-23 05:52 269 10 gusting 22 3.9
2020-Feb-23 05:47 238 9 gusting 22 3.9
2020-Feb-23 05:42 232 9 gusting 22 3.9
2020-Feb-23 05:37 269 12 gusting 25 3.9
2020-Feb-23 05:32 254 13 gusting 25 3.9
2020-Feb-23 05:27 264 11 gusting 20 3.9
2020-Feb-23 05:22 239 11 gusting 20 3.9
2020-Feb-23 05:17 274 10 gusting 17 3.9
2020-Feb-23 05:12 231 9 gusting 20 3.9
2020-Feb-23 05:07 257 10 gusting 20 3.9
2020-Feb-23 05:02 241 11 gusting 20 3.9
2020-Feb-23 04:57 235 11 gusting 20 3.9
2020-Feb-23 04:52 255 12 gusting 20 3.9
2020-Feb-23 04:47 262 11 gusting 20 3.9
2020-Feb-23 04:42 242 9 gusting 19 3.9
2020-Feb-23 04:37 240 10 gusting 19 3.9
2020-Feb-23 04:32 242 11 gusting 19 3.9
2020-Feb-23 04:27 246 11 gusting 19 3.9
2020-Feb-23 04:22 238 11 gusting 19 3.9
2020-Feb-23 04:17 236 11 gusting 22 3.9
2020-Feb-23 04:12 240 11 gusting 22 3.9
2020-Feb-23 04:07 246 12 gusting 22 3.9
2020-Feb-23 04:02 259 13 gusting 22 3.9
2020-Feb-23 03:57 254 13 gusting 20 3.9
2020-Feb-23 03:52 249 12 gusting 20 3.9
2020-Feb-23 03:47 258 11 gusting 21 3.9
2020-Feb-23 03:42 237 11 gusting 21 3.9
2020-Feb-23 03:37 265 11 gusting 21 3.9
2020-Feb-23 03:32 234 10 gusting 19 3.9
2020-Feb-23 03:27 263 9 gusting 23 3.9
2020-Feb-23 03:22 235 10 gusting 23 3.9
2020-Feb-23 03:17 251 11 gusting 18 3.3
2020-Feb-23 03:12 241 11 gusting 18 3.3
2020-Feb-23 03:07 236 10 gusting 19 3.3
2020-Feb-23 02:57 267 11 gusting 23 3.3
2020-Feb-23 02:52 252 11 gusting 23 3.3
2020-Feb-23 02:47 259 11 gusting 23 3.3
2020-Feb-23 02:42 254 12 gusting 21 3.3
2020-Feb-23 02:37 246 12 gusting 23 3.3
2020-Feb-23 02:32 227 12 gusting 23 3.3
2020-Feb-23 02:27 258 12 gusting 23 3.3
2020-Feb-23 02:22 243 12 gusting 23 3.3
2020-Feb-23 02:17 261 11 gusting 21 3.3
2020-Feb-23 02:12 237 11 gusting 23 3.3
2020-Feb-23 02:07 271 12 gusting 23 3.3
2020-Feb-23 02:02 244 12 gusting 23 3.3